TimeEDT,TemperatureF,Dew PointF,Humidity,Sea Level PressureIn,VisibilityMPH,Wind Direction,Wind SpeedMPH,Gust SpeedMPH,PrecipitationIn,Events,Conditions,WindDirDegrees,DateUTC
12:15 AM,73.4,66.2,78,30.01,10.0,WNW,3.5,-,N/A,,Clear,290,2013-05-24 04:15:00
12:35 AM,73.4,66.2,78,30.01,10.0,Calm,Calm,-,N/A,,Clear,0,2013-05-24 04:35:00
12:55 AM,71.6,64.4,78,30.01,10.0,Calm,Calm,-,N/A,,Clear,0,2013-05-24 04:55:00
1:15 AM,71.6,64.4,78,30.01,10.0,SSW,3.5,-,N/A,,Clear,200,2013-05-24 05:15:00
1:35 AM,69.8,64.4,83,30.00,9.0,Calm,Calm,-,N/A,,Clear,0,2013-05-24 05:35:00
1:55 AM,69.8,64.4,83,30.00,6.0,Calm,Calm,-,N/A,,Clear,0,2013-05-24 05:55:00
2:15 AM,69.8,62.6,78,30.00,5.0,Calm,Calm,-,N/A,,Clear,0,2013-05-24 06:15:00
2:35 AM,69.8,64.4,83,29.99,5.0,Calm,Calm,-,N/A,,Clear,0,2013-05-24 06:35:00
2:55 AM,68.0,62.6,83,29.99,3.0,Calm,Calm,-,N/A,,Clear,0,2013-05-24 06:55:00
3:15 AM,69.8,62.6,78,29.99,0.2,SSW,3.5,-,N/A,,Unknown,200,2013-05-24 07:15:00
3:35 AM,68.0,62.6,83,29.99,0.5,Calm,Calm,-,N/A,,Unknown,0,2013-05-24 07:35:00
3:55 AM,68.0,62.6,83,29.99,0.2,Calm,Calm,-,N/A,,Unknown,0,2013-05-24 07:55:00
4:15 AM,69.8,62.6,78,29.99,0.2,SSW,3.5,-,N/A,,Mostly Cloudy,210,2013-05-24 08:15:00
4:35 AM,69.8,62.6,78,29.98,0.2,Calm,Calm,-,N/A,,Mostly Cloudy,0,2013-05-24 08:35:00
4:55 AM,68.0,62.6,83,29.99,0.8,Calm,Calm,-,N/A,,Mostly Cloudy,0,2013-05-24 08:55:00
5:15 AM,68.0,62.6,83,29.99,0.8,South,3.5,-,N/A,,Mostly Cloudy,190,2013-05-24 09:15:00
5:35 AM,66.2,62.6,88,29.99,0.5,SSW,3.5,-,N/A,,Overcast,210,2013-05-24 09:35:00
5:55 AM,68.0,62.6,83,30.00,0.2,SSW,3.5,-,N/A,,Overcast,210,2013-05-24 09:55:00
6:15 AM,68.0,62.6,83,30.01,0.2,Calm,Calm,-,N/A,,Overcast,0,2013-05-24 10:15:00
6:35 AM,69.8,62.6,78,30.02,0.2,SSW,3.5,-,N/A,,Overcast,210,2013-05-24 10:35:00
6:50 AM,69.8,64.4,83,30.02,0.2,Calm,Calm,-,N/A,Fog,Fog,0,2013-05-24 10:50:00
7:50 AM,71.6,66.2,83,30.04,0.2,NW,4.6,-,N/A,Fog,Fog,320,2013-05-24 11:50:00
8:30 AM,71.6,66.2,83,30.04,6.0,WNW,4.6,-,N/A,,Scattered Clouds,290,2013-05-24 12:30:00
8:50 AM,71.6,66.2,83,30.05,10.0,WNW,4.6,-,N/A,,Partly Cloudy,290,2013-05-24 12:50:00
9:50 AM,80.6,64.4,58,30.05,10.0,NW,9.2,-,N/A,,Clear,320,2013-05-24 13:50:00
10:50 AM,84.2,62.6,48,30.06,10.0,NNW,9.2,-,N/A,,Clear,340,2013-05-24 14:50:00
11:50 AM,87.8,62.6,43,30.06,10.0,NNW,6.9,-,N/A,,Clear,340,2013-05-24 15:50:00
12:50 PM,89.6,62.6,40,30.06,10.0,NW,6.9,-,N/A,,Partly Cloudy,310,2013-05-24 16:50:00
1:50 PM,89.6,62.6,40,30.05,10.0,NW,11.5,-,N/A,,Scattered Clouds,310,2013-05-24 17:50:00
2:50 PM,89.6,62.6,40,30.04,10.0,WNW,12.7,16.1,N/A,,Mostly Cloudy,300,2013-05-24 18:50:00
3:50 PM,89.6,60.8,38,30.02,10.0,NW,11.5,18.4,N/A,,Scattered Clouds,320,2013-05-24 19:50:00
4:50 PM,89.6,62.6,40,30.02,10.0,NNW,10.4,-,N/A,,Scattered Clouds,330,2013-05-24 20:50:00
5:50 PM,89.6,60.8,38,30.02,10.0,NNW,11.5,-,N/A,,Scattered Clouds,330,2013-05-24 21:50:00
6:50 PM,89.6,60.8,38,30.02,10.0,NNW,10.4,-,N/A,,Scattered Clouds,330,2013-05-24 22:50:00
7:55 PM,84.2,55.4,37,30.03,10.0,NNW,9.2,-,N/A,,Clear,340,2013-05-24 23:55:00
8:15 PM,82.4,55.4,39,30.04,10.0,North,6.9,-,N/A,,Clear,350,2013-05-25 00:15:00
8:35 PM,78.8,55.4,44,30.04,10.0,North,5.8,-,N/A,,Clear,350,2013-05-25 00:35:00
8:55 PM,78.8,55.4,44,30.05,10.0,North,5.8,-,N/A,,Clear,360,2013-05-25 00:55:00
9:15 PM,75.2,55.4,50,30.06,10.0,North,9.2,-,N/A,,Clear,10,2013-05-25 01:15:00
9:35 PM,78.8,55.4,44,30.06,10.0,NNE,5.8,-,N/A,,Clear,20,2013-05-25 01:35:00
9:55 PM,75.2,55.4,50,30.07,10.0,North,5.8,-,N/A,,Clear,350,2013-05-25 01:55:00
10:15 PM,73.4,55.4,53,30.08,10.0,North,4.6,-,N/A,,Clear,10,2013-05-25 02:15:00
10:35 PM,73.4,55.4,53,30.09,10.0,North,6.9,-,N/A,,Clear,10,2013-05-25 02:35:00
10:55 PM,75.2,53.6,47,30.09,10.0,North,8.1,-,N/A,,Clear,10,2013-05-25 02:55:00
11:15 PM,75.2,53.6,47,30.11,10.0,NE,4.6,-,N/A,,Clear,40,2013-05-25 03:15:00
11:35 PM,75.2,55.4,50,30.12,10.0,NNE,3.5,-,N/A,,Clear,30,2013-05-25 03:35:00
11:55 PM,73.4,55.4,53,30.12,10.0,Calm,Calm,-,N/A,,Clear,0,2013-05-25 03:55:00